Location: Kerguer�zec
(48.4509°N, 4.7600°W)
Time: 17:07:19
(UTC+00:00)

SPOT 3 Rocket - Pass Details

Date: 09 April 2020
Orbit: 778 x 795 km, 98.8° (Epoch: 25 May)

Event Time Altitude Azimuth Distance (km) Brightness Sun altitude
Exits shadow 19:22:44 - 136° (SE) 3,218 6.2 -4.2°
Reaches altitude 10° 19:25:02 10° 128° (SE) 2,357 5.4 -4.5°
Maximum altitude 19:29:42 35° 64° (ENE) 1,268 4.3 -5.3°
Drops below altitude 10° 19:34:23 10° 1° (N) 2,363 6.3 -6.0°
Sets 19:36:52 0° 352° (N) 3,293 7.2 -6.4°
